LIVE Streaming HD
Get Adobe Flash player
Annunci di Google
SATELLITE
Annuci di Google
Dati meteo stazione (refresh automatico ogni minuto)
Senigallia(AN) VENTO: VELOCITÀ   PIOGGIA: QTA GIORNO TEMPERATURA: ATTUALE
SPOT: Darsena Di Senigallia RAFFICA MASSIMA: QTA MENSILE: MASSIMA:
VELOCITÀ MEDIA: QTA ANNUALE: MINIMA:
DIREZIONE: UMIDITÀ: WIND CHILL:
TIPO: DEW POINT:
BEAUFORT: PRESSIONE:
I nostri partner
Senigallia(AN) nelle ultime ore
Applica filtri in visualizzazione Intervallo delle letture nelle ultime

Ora Direzione Vento Velocita' Vento Media Vento Raffica Max. Temperatura Wind Chill Pioggia Pressione
22:08:26229 °(SW)5.2 Kts4.3 Kts19.1 Kts-67.8 °C-73.3 °C0.2 mm996.1 Hpa
22:02:46218 °(SW)4.3 Kts5.2 Kts19.1 Kts-67.8 °C-77 °C0.2 mm995.9 Hpa
21:58:16222 °(SW)5.2 Kts5.2 Kts19.1 Kts-67.8 °C-77 °C0.2 mm995.9 Hpa
21:53:18225 °(SW)7.8 Kts4.3 Kts19.1 Kts-67.8 °C-73.3 °C0.2 mm996 Hpa
21:48:16226 °(SW)4.3 Kts4.3 Kts19.1 Kts-67.8 °C-73.3 °C0.2 mm995.9 Hpa
21:43:18221 °(SW)2.6 Kts4.3 Kts19.1 Kts-67.8 °C-73.3 °C0.2 mm995.9 Hpa
21:38:12214 °(SW)4.3 Kts4.3 Kts19.1 Kts-67.8 °C-73.3 °C0.2 mm995.9 Hpa
21:33:15226 °(SW)3.5 Kts4.3 Kts19.1 Kts-67.8 °C-73.3 °C0.2 mm995.9 Hpa
21:28:19213 °(SSW)3.5 Kts3.5 Kts19.1 Kts-67.8 °C-67.8 °C0.2 mm995.8 Hpa
21:23:16229 °(SW)2.6 Kts3.5 Kts19.1 Kts-67.8 °C-67.8 °C0.2 mm995.8 Hpa
21:18:19219 °(SW)3.5 Kts4.3 Kts19.1 Kts-67.8 °C-73.3 °C0.2 mm995.7 Hpa
21:13:24240 °(WSW)3.5 Kts5.2 Kts19.1 Kts-67.8 °C-77 °C0.2 mm995.7 Hpa
21:08:22237 °(WSW)3.5 Kts5.2 Kts19.1 Kts-67.8 °C-77 °C0.2 mm995.5 Hpa
21:03:27224 °(SW)6.1 Kts4.3 Kts19.1 Kts-67.8 °C-73.3 °C0.2 mm995.5 Hpa
20:57:51227 °(SW)7 Kts4.3 Kts19.1 Kts-67.8 °C-73.3 °C0.2 mm995.5 Hpa
20:52:55225 °(SW)4.3 Kts4.3 Kts19.1 Kts-67.8 °C-73.3 °C0.2 mm995.5 Hpa
20:47:56233 °(SW)5.2 Kts5.2 Kts19.1 Kts-67.8 °C-77 °C0.2 mm995.4 Hpa
20:43:01236 °(SW)6.1 Kts5.2 Kts19.1 Kts-67.8 °C-77 °C0.2 mm995.4 Hpa
20:38:06228 °(SW)5.2 Kts4.3 Kts19.1 Kts-67.8 °C-73.3 °C0.2 mm995.2 Hpa
20:33:12227 °(SW)4.3 Kts4.3 Kts19.1 Kts-67.8 °C-73.3 °C0.2 mm995.3 Hpa
20:28:17226 °(SW)4.3 Kts4.3 Kts19.1 Kts-67.8 °C-73.3 °C0.2 mm995.2 Hpa
20:23:21231 °(SW)4.3 Kts4.3 Kts19.1 Kts-67.8 °C-73.3 °C0.2 mm995.1 Hpa
20:18:18230 °(SW)4.3 Kts5.2 Kts19.1 Kts-67.8 °C-77 °C0.2 mm995.1 Hpa
20:13:17228 °(SW)3.5 Kts5.2 Kts19.1 Kts-67.8 °C-77 °C0.2 mm995.1 Hpa